Regional Weather Roundup
Issued by NWS

Home | Current Version | Previous Version | Text Only | Print | Product List | Glossary Off
Versions: 1 2 3 4 5 6 7 8 9 10 11 12 13 14 15 16 17 18 19 20 21 22 23 24 25 26 27 28 29 30 31 32 33 34 35 36 37 38 39 40 41 42 43 44 45 46 47 48 49 50

238
ASUS43 KFSD 260102
RWRSD

WEATHER ROUNDUP FOR SOUTH DAKOTA
NATIONAL WEATHER SERVICE SIOUX FALLS SD
800 PM CDT TUE APR 25 2017

NOTE: "FAIR" INDICATES FEW OR NO CLOUDS BELOW 12,000 FEET WITH NO
SIGNIFICANT WEATHER AND/OR OBSTRUCTIONS TO VISIBILITY.


SDZ001>005-009-010-012>017-260200-
NORTHWEST AND NORTH CENTRAL SOUTH DAKOTA

CITY           SKY/WX    TMP DP  RH WIND       PRES   REMARKS
BUFFALO          N/A     30  26  85 N9        29.82S WCI  22
FAITH            N/A     29  27  92 N15       29.85R WCI  18
MOBRIDGE       CLOUDY    34  24  67 N15G22    29.83R WCI  24
$$

SDZ012>016-024>037-041>051-057-063-072>074-260200-
SOUTHWEST AND SOUTH CENTRAL SOUTH DAKOTA

CITY           SKY/WX    TMP DP  RH WIND       PRES   REMARKS
RAPID CTY ARPT FLURRIES  28  24  85 N18       29.86R WCI  15
PIERRE         FLURRIES  32  29  88 N17       29.81S WCI  21
CUSTER         CLOUDY    27  21  78 NW3       29.74R
ELLSWORTH AFB  CLOUDY    28  28  99 N15       29.85R WCI  17
PHILIP         FLURRIES  31  29  92 N15       29.86R WCI  20
PINE RIDGE     LGT SNOW  31  27  85 N14       29.82R FOG     WCI  21
SPEARFISH      LGT SNOW  27  25  93 NW7       29.86S WCI  19
WINNER         CLOUDY    36  31  82 N14       29.78R
$$

SDZ004>011-016>023-039-040-260200-
NORTHEAST SOUTH DAKOTA

CITY           SKY/WX    TMP DP  RH WIND       PRES   REMARKS
ABERDEEN       CLOUDY    33  26  75 N22G30    29.79S WCI  21
WATERTOWN      CLOUDY    34  31  88 N21G30    29.68F WCI  22
BROOKINGS      LGT RAIN  35  33  92 N18G25    29.67R WCI  24
SISSETON         N/A     36  33  89 N18G29    29.73R
$$

SDZ017-020-022-023-036>040-048>070-260200-
SOUTHEAST SOUTH DAKOTA

CITY           SKY/WX    TMP DP  RH WIND       PRES   REMARKS
SIOUX FALLS    LGT RAIN  38  38 100 N16       29.66S FOG
HURON          CLOUDY    34  32  92 N18G24    29.76R WCI  23
CHAMBERLAIN    CLOUDY    37  32  82 NW16G22   29.78R
MITCHELL       LGT RAIN  36  33  89 N17G23    29.75R
YANKTON        CLOUDY    37  34  87 NW18G28   29.67S
$$

ABBREVIATIONS USED IN REMARKS
   TC - TEMPERATURE IN CELSIUS
  WCI - WIND CHILL INDEX
   HX - HEAT INDEX
  VSB - VISIBILITY





USA.gov is the U.S. government's official web portal to all federal, state and local government web resources and services.